カタログに戻る

STARLINK-11140

運用中通信VLEO
NORAD 60039·PAYLOAD·🇺🇸 United States

打ち上げ Jun 8, 2024 から Vandenberg Space Force Base

Loading…

次のパス (今後24時間)

TLE

最新Source: CelesTrak SupGP

元期: Sep 14, 2026, 21:01 UTC

1 60039C 24112B   26257.87618056  .00059046  00000+0  48656-3 0  2573
2 60039  53.1574  53.9222 0001126  65.3925 207.1762 15.69671180    18

AllMySatでSTARLINK-11140をリアルタイム追跡

Download on the App Store